Tracking 29790 objects as of 12-Oct-2024
HD Live streaming from Space Station
objects crossing your sky now

STARLINK-6077

Track STARLINK-6077 now!
10-day predictions
STARLINK-6077 is classified as:


NORAD ID: 56097
Int'l Code: 2023-046E
Perigee: 565.4 km
Apogee: 567.2 km
Inclination: 43.0 °
Period: 95.8 minutes
Semi major axis: 6937 km
RCS: Unknown
Launch date: March 29, 2023
Source: United States (US)
Launch site: AIR FORCE EASTERN TEST RANGE (AFETR)
Your satellite tracking list
Your tracking list is empty




NASA's NSSDC Master Catalog

Two Line Element Set (TLE):
1 56097U 23046E   24285.97587118 -.00003547  00000-0 -24786-3 0  9990
2 56097  43.0049  18.4821 0001315 263.8097  96.2596 15.02503441 85924
Source of the keplerian elements: AFSPC